NOAA 16 DEB, 41514

Orbit data source: Space-Track

NOAA 16 DEB, 41514 is space debris in SSO originally from a launch on Thu, 21 Sep 2000 UTC launched from the Air Force Western Test Range (AFWTR). Debris objects in space refer to the collection of defunct objects orbiting the Earth. Examples of debris include non-operational satellites, rocket bodies, and fragments generated from explosions, collisions, or faulty payload assembly.

Loading next visibility...
Identifier
41514, 2000-055MN
Orbit
SSO
Country
Flag of USUS
Related business
Manufacturer
Unknown
Mission
Spacecraft
Bus & Motor
Unknown
Mass
Unknown
Launch date (UTC)
2000-09-21 (25 years ago)
Launch vehicle
Unknown
Launch site
Air Force Western Test Range (AFWTR)
Object type
Payload
Rocket body
Debris
Shape & HBR
Unknown shape, 0.1 m
Radar Cross Section
Small (<0.1 m²)

Expand to show TLE details & history
Last TLE update: 20 hours ago

TLE from 20 hours ago
0 NOAA 16 DEB
1 41514U 00055MN  26073.48912234  .00027359  00000-0  41356-2 0  9993
2 41514  98.9106 270.5137 0021472 289.6131  70.2757 14.74052464516895
Epoch: 2026-03-14T11:44Z
TLE epoch observation values (Epoch: 2026-03-14T11:44:20.170Z)
Latitude
0.00002°
Longitude
-77.67992°
Altitude
646.078 km
Speed
7.538 km/s
True Right ascension
18h 02m 03s
True Declination
0° 00' 00"
Sunlit
Object was in daylight at epoch
Visualization orbit readout
Latitude
Unknown
Longitude
Unknown
Altitude
Unknown
Speed
Unknown
Apparent Right ascension
Unknown
Apparent Declination
Unknown
Sunlit
N/A
Visualization observer readout
Local Sidereal Time
12:32:16
Azimuth
Unknown
Elevation
Unknown
Doppler factor
Unknown
Orbital elements
Apogee altitude
660.338 km
Perigee altitude
630.177 km
Semi-major axis
7,023.394 km
Eccentricity
0.00215
Inclination
98.9106°
RAAN
270.5137°
Arg. of periapsis
289.6131°
True anomaly
70.50752°
Mean anomaly
70.2757°
Eccentric anomaly
70.39159°
Mean motion
3.68742 °/min
Orbital period
97.63 mins
BSTAR
0.0041356
Loading maneuver chart data...
Computing Atmospheric mass density...
Loading historical data...
Loading historical data...
Loading historical data...
Loading historical data...
Loading historical data...
Loading historical data...
Loading historical data...

Documentation

Showing up to 5 results
|